Time,TemperatureF,DewpointF,PressureIn,WindDirection,WindDirectionDegrees,WindSpeedMPH,WindSpeedGustMPH,Humidity,HourlyPrecipIn,Conditions,Clouds,dailyrainin,SolarRadiationWatts/m^2,SoftwareType,DateUTC
2013-03-19 00:01:00,32.3,31.3,29.88,NE,42,0.0,0.0,96,0.00,,,0.00,0.00,VWS V14.01,2013-03-19 04:01:00,
2013-03-19 00:02:00,32.3,31.3,29.88,NE,42,0.0,0.0,96,0.00,,,0.00,0.00,VWS V14.01,2013-03-19 04:02:00,
2013-03-19 00:03:00,32.3,31.3,29.88,NE,42,0.0,0.0,96,0.00,,,0.00,0.00,VWS V14.01,2013-03-19 04:03:00,
2013-03-19 00:08:00,32.3,31.3,29.88,NE,42,0.0,0.0,96,0.00,,,0.00,0.00,VWS V14.01,2013-03-19 04:08:00,
2013-03-19 00:13:00,32.3,31.3,29.87,NE,42,0.0,0.0,96,0.00,,,0.00,0.00,VWS V14.01,2013-03-19 04:13:00,
2013-03-19 00:18:00,32.3,31.3,29.87,NE,42,0.0,0.0,96,0.00,,,0.00,0.00,VWS V14.01,2013-03-19 04:18:00,
2013-03-19 00:23:00,32.3,31.3,29.87,NE,41,0.0,0.0,96,0.00,,,0.00,0.00,VWS V14.01,2013-03-19 04:23:00,
2013-03-19 00:28:00,32.3,31.3,29.86,NE,42,0.0,0.0,96,0.00,,,0.00,0.00,VWS V14.01,2013-03-19 04:28:00,
2013-03-19 00:33:00,32.3,31.3,29.85,NE,42,0.0,0.0,96,0.00,,,0.00,0.00,VWS V14.01,2013-03-19 04:33:00,
2013-03-19 00:39:00,32.3,31.3,29.85,NE,41,0.0,0.0,96,0.00,,,0.00,0.00,VWS V14.01,2013-03-19 04:39:00,
2013-03-19 00:44:00,32.3,31.3,29.85,NE,42,0.0,0.0,96,0.00,,,0.00,0.00,VWS V14.01,2013-03-19 04:44:00,
2013-03-19 00:49:00,32.3,31.3,29.85,NE,42,0.0,0.0,96,0.00,,,0.00,0.00,VWS V14.01,2013-03-19 04:49:00,
2013-03-19 00:54:00,32.3,31.3,29.85,NE,42,0.0,0.0,96,0.00,,,0.00,0.00,VWS V14.01,2013-03-19 04:54:00,
2013-03-19 00:59:00,32.3,31.3,29.84,NE,42,0.0,0.0,96,0.00,,,0.00,0.00,VWS V14.01,2013-03-19 04:59:00,
2013-03-19 01:04:00,32.3,31.3,29.84,NE,41,0.0,0.0,96,0.00,,,0.00,0.00,VWS V14.01,2013-03-19 05:04:00,
2013-03-19 01:09:00,32.3,31.3,29.84,NE,41,0.0,0.0,96,0.00,,,0.00,0.00,VWS V14.01,2013-03-19 05:09:00,
2013-03-19 01:14:00,32.3,31.3,29.85,NE,42,0.0,0.0,96,0.00,,,0.00,0.00,VWS V14.01,2013-03-19 05:14:00,
2013-03-19 01:19:00,32.3,31.3,29.84,NE,42,0.0,0.0,96,0.00,,,0.00,0.00,VWS V14.01,2013-03-19 05:19:00,
2013-03-19 01:24:00,32.3,31.3,29.84,NE,42,0.0,0.0,96,0.00,,,0.00,0.00,VWS V14.01,2013-03-19 05:24:00,
2013-03-19 01:29:00,32.3,31.3,29.84,NE,42,0.0,0.0,96,0.00,,,0.00,0.00,VWS V14.01,2013-03-19 05:29:00,
2013-03-19 01:34:00,32.3,31.3,29.83,NE,42,0.0,0.0,96,0.00,,,0.00,0.00,VWS V14.01,2013-03-19 05:34:00,
2013-03-19 01:39:00,32.3,31.3,29.82,NE,42,0.0,0.0,96,0.00,,,0.00,0.00,VWS V14.01,2013-03-19 05:39:00,
2013-03-19 01:45:00,32.3,31.3,29.82,NE,42,0.0,0.0,96,0.00,,,0.00,0.00,VWS V14.01,2013-03-19 05:45:00,
2013-03-19 01:50:00,32.3,31.3,29.83,NE,41,0.0,0.0,96,0.00,,,0.00,0.00,VWS V14.01,2013-03-19 05:50:00,
2013-03-19 01:55:00,32.3,31.3,29.83,NE,42,0.0,0.0,96,0.00,,,0.00,0.00,VWS V14.01,2013-03-19 05:55:00,
2013-03-19 02:00:00,32.3,31.3,29.83,NE,42,0.0,0.0,96,0.00,,,0.00,0.00,VWS V14.01,2013-03-19 06:00:00,
2013-03-19 02:05:00,32.3,31.5,29.83,NE,41,0.0,0.0,97,0.00,,,0.00,0.00,VWS V14.01,2013-03-19 06:05:00,
2013-03-19 02:10:00,32.3,31.3,29.82,NE,42,0.0,0.0,96,0.00,,,0.00,0.00,VWS V14.01,2013-03-19 06:10:00,
2013-03-19 02:15:00,32.3,31.3,29.82,NE,42,0.0,0.0,96,0.00,,,0.00,0.00,VWS V14.01,2013-03-19 06:15:00,
2013-03-19 02:20:00,32.3,31.3,29.83,NE,42,0.0,0.0,96,0.00,,,0.00,0.00,VWS V14.01,2013-03-19 06:20:00,
2013-03-19 02:25:00,32.3,31.3,29.83,NE,42,0.0,0.0,96,0.00,,,0.00,0.00,VWS V14.01,2013-03-19 06:25:00,
2013-03-19 02:30:00,32.3,31.3,29.82,NE,41,0.0,0.0,96,0.00,,,0.00,0.00,VWS V14.01,2013-03-19 06:30:00,
2013-03-19 02:35:00,32.3,31.3,29.81,NE,41,0.0,0.0,96,0.00,,,0.00,0.00,VWS V14.01,2013-03-19 06:35:00,
2013-03-19 02:40:00,32.3,31.3,29.81,NE,42,0.0,0.0,96,0.00,,,0.00,0.00,VWS V14.01,2013-03-19 06:40:00,
2013-03-19 02:47:00,32.3,31.3,29.82,NE,41,0.0,0.0,96,0.00,,,0.00,0.00,VWS V14.01,2013-03-19 06:47:00,
2013-03-19 02:52:00,32.3,31.3,29.81,NE,42,0.0,0.0,96,0.00,,,0.00,0.00,VWS V14.01,2013-03-19 06:52:00,
2013-03-19 02:57:00,32.3,31.3,29.80,NE,42,0.0,0.0,96,0.00,,,0.00,0.00,VWS V14.01,2013-03-19 06:57:00,
2013-03-19 03:03:00,32.3,31.3,29.80,NE,41,0.0,0.0,96,0.00,,,0.00,0.00,VWS V14.01,2013-03-19 07:03:00,
2013-03-19 03:08:00,32.3,31.3,29.80,NE,41,0.0,0.0,96,0.00,,,0.00,0.00,VWS V14.01,2013-03-19 07:08:00,
2013-03-19 03:13:00,32.3,31.3,29.79,NE,41,0.0,0.0,96,0.00,,,0.00,0.00,VWS V14.01,2013-03-19 07:13:00,
2013-03-19 03:18:00,32.3,31.3,29.79,NE,41,0.0,0.0,96,0.00,,,0.00,0.00,VWS V14.01,2013-03-19 07:18:00,
2013-03-19 03:23:00,32.3,31.3,29.79,NE,42,0.0,0.0,96,0.00,,,0.00,0.00,VWS V14.01,2013-03-19 07:23:00,
2013-03-19 03:28:00,32.2,31.2,29.79,NE,41,0.0,0.0,96,0.00,,,0.00,0.00,VWS V14.01,2013-03-19 07:28:00,
2013-03-19 03:33:00,32.2,31.5,29.77,NE,42,0.0,0.0,97,0.00,,,0.00,0.00,VWS V14.01,2013-03-19 07:33:00,
2013-03-19 03:38:00,32.2,31.5,29.78,NE,42,0.0,0.0,97,0.00,,,0.00,0.00,VWS V14.01,2013-03-19 07:38:00,
2013-03-19 03:44:00,32.2,31.5,29.78,NE,42,0.0,0.0,97,0.00,,,0.00,0.00,VWS V14.01,2013-03-19 07:44:00,
2013-03-19 03:49:00,32.2,31.5,29.78,NE,42,0.0,0.0,97,0.00,,,0.00,0.00,VWS V14.01,2013-03-19 07:49:00,
2013-03-19 03:54:00,32.2,31.5,29.78,NE,41,0.0,0.0,97,0.00,,,0.00,0.00,VWS V14.01,2013-03-19 07:54:00,
2013-03-19 03:59:00,32.2,31.5,29.78,NE,42,0.0,0.0,97,0.00,,,0.00,0.00,VWS V14.01,2013-03-19 07:59:00,
2013-03-19 04:04:00,32.2,31.5,29.78,NE,42,0.0,0.0,97,0.00,,,0.00,0.00,VWS V14.01,2013-03-19 08:04:00,
2013-03-19 04:09:00,32.2,31.5,29.78,NE,41,0.0,0.0,97,0.00,,,0.00,0.00,VWS V14.01,2013-03-19 08:09:00,
2013-03-19 04:14:00,32.1,31.4,29.77,NE,42,0.0,0.0,97,0.00,,,0.00,0.00,VWS V14.01,2013-03-19 08:14:00,
2013-03-19 04:19:00,32.1,31.4,29.77,NE,42,0.0,0.0,97,0.00,,,0.00,0.00,VWS V14.01,2013-03-19 08:19:00,
2013-03-19 04:24:00,32.1,31.4,29.76,NE,42,0.0,0.0,97,0.00,,,0.00,0.00,VWS V14.01,2013-03-19 08:24:00,
2013-03-19 04:29:00,32.1,31.4,29.76,NE,42,0.0,0.0,97,0.00,,,0.00,0.00,VWS V14.01,2013-03-19 08:29:00,
2013-03-19 04:34:00,32.1,31.4,29.77,NE,42,0.0,0.0,97,0.00,,,0.00,0.00,VWS V14.01,2013-03-19 08:34:00,
2013-03-19 04:39:00,32.1,31.4,29.76,NE,41,0.0,0.0,97,0.00,,,0.00,0.00,VWS V14.01,2013-03-19 08:39:00,
2013-03-19 04:44:00,32.1,31.4,29.75,NE,42,0.0,0.0,97,0.00,,,0.00,0.00,VWS V14.01,2013-03-19 08:44:00,
2013-03-19 04:49:00,32.1,31.4,29.75,NE,41,0.0,0.0,97,0.00,,,0.00,0.00,VWS V14.01,2013-03-19 08:49:00,
2013-03-19 04:54:00,32.1,31.4,29.76,NE,42,0.0,0.0,97,0.00,,,0.00,0.00,VWS V14.01,2013-03-19 08:54:00,
2013-03-19 04:59:00,32.1,31.4,29.76,NE,42,0.0,0.0,97,0.00,,,0.00,0.00,VWS V14.01,2013-03-19 08:59:00,
2013-03-19 05:04:00,32.1,31.4,29.77,NE,42,0.0,0.0,97,0.00,,,0.00,0.00,VWS V14.01,2013-03-19 09:04:00,
2013-03-19 05:10:00,32.1,31.4,29.76,NE,41,0.0,0.0,97,0.00,,,0.00,0.00,VWS V14.01,2013-03-19 09:10:00,
2013-03-19 05:15:00,32.1,31.4,29.76,NE,42,0.0,0.0,97,0.00,,,0.00,0.00,VWS V14.01,2013-03-19 09:15:00,
2013-03-19 05:20:00,32.1,31.4,29.75,NE,42,0.0,0.0,97,0.00,,,0.00,0.00,VWS V14.01,2013-03-19 09:20:00,
2013-03-19 05:25:00,32.1,31.4,29.76,NE,42,0.0,0.0,97,0.00,,,0.00,0.00,VWS V14.01,2013-03-19 09:25:00,
2013-03-19 05:30:00,32.1,31.4,29.75,NE,41,0.0,0.0,97,0.00,,,0.00,0.00,VWS V14.01,2013-03-19 09:30:00,
2013-03-19 05:35:00,32.1,31.4,29.75,NE,42,0.0,0.0,97,0.00,,,0.00,0.00,VWS V14.01,2013-03-19 09:35:00,
2013-03-19 05:40:00,32.2,31.5,29.75,NE,42,0.0,0.0,97,0.00,,,0.00,0.00,VWS V14.01,2013-03-19 09:40:00,
2013-03-19 05:45:00,32.2,31.5,29.75,NE,42,0.0,0.0,97,0.00,,,0.00,0.00,VWS V14.01,2013-03-19 09:45:00,
2013-03-19 05:50:00,32.2,31.5,29.75,NE,42,0.0,0.0,97,0.00,,,0.00,0.00,VWS V14.01,2013-03-19 09:50:00,
2013-03-19 05:55:00,32.2,31.5,29.75,NE,41,0.0,0.0,97,0.00,,,0.00,0.00,VWS V14.01,2013-03-19 09:55:00,
2013-03-19 06:00:00,32.2,31.5,29.75,NE,41,0.0,0.0,97,0.00,,,0.00,0.00,VWS V14.01,2013-03-19 10:00:00,
2013-03-19 06:05:00,32.2,31.5,29.75,NE,42,0.0,0.0,97,0.00,,,0.00,0.00,VWS V14.01,2013-03-19 10:05:00,
2013-03-19 06:10:00,32.2,31.5,29.75,NE,42,0.0,0.0,97,0.00,,,0.00,0.00,VWS V14.01,2013-03-19 10:10:00,
2013-03-19 06:15:00,32.2,31.5,29.75,NE,42,0.0,0.0,97,0.00,,,0.00,0.00,VWS V14.01,2013-03-19 10:15:00,
2013-03-19 06:20:00,32.2,31.5,29.76,NE,41,0.0,0.0,97,0.00,,,0.00,0.00,VWS V14.01,2013-03-19 10:20:00,
2013-03-19 06:25:00,32.2,31.5,29.75,NE,42,0.0,0.0,97,0.00,,,0.00,0.00,VWS V14.01,2013-03-19 10:25:00,
2013-03-19 06:30:00,32.2,31.5,29.76,NE,41,0.0,0.0,97,0.00,,,0.00,0.00,VWS V14.01,2013-03-19 10:30:00,
2013-03-19 06:36:00,32.2,31.5,29.76,NE,42,0.0,0.0,97,0.00,,,0.00,0.00,VWS V14.01,2013-03-19 10:36:00,
2013-03-19 06:41:00,32.2,31.5,29.76,NE,41,0.0,0.0,97,0.00,,,0.00,0.00,VWS V14.01,2013-03-19 10:41:00,
2013-03-19 06:46:00,32.2,31.5,29.78,NE,41,0.0,0.0,97,0.00,,,0.00,0.00,VWS V14.01,2013-03-19 10:46:00,
2013-03-19 06:51:00,32.3,31.5,29.79,NW,318,4.0,4.0,97,0.00,,,0.00,0.00,VWS V14.01,2013-03-19 10:51:00,
2013-03-19 06:56:00,32.3,31.5,29.80,NW,318,0.0,0.0,97,0.00,,,0.00,0.00,VWS V14.01,2013-03-19 10:56:00,
2013-03-19 07:02:00,32.4,31.6,29.80,NW,319,0.0,0.0,97,0.00,,,0.00,0.00,VWS V14.01,2013-03-19 11:02:00,
2013-03-19 07:07:00,32.4,31.6,29.80,NW,319,0.0,0.0,97,0.00,,,0.00,0.00,VWS V14.01,2013-03-19 11:07:00,
2013-03-19 07:12:00,32.4,31.6,29.81,NW,319,0.0,0.0,97,0.00,,,0.00,0.00,VWS V14.01,2013-03-19 11:12:00,
2013-03-19 07:17:00,32.5,31.7,29.82,NW,318,0.0,0.0,97,0.00,,,0.00,0.00,VWS V14.01,2013-03-19 11:17:00,
2013-03-19 07:22:00,32.4,31.6,29.80,NW,319,0.0,0.0,97,0.00,,,0.00,0.00,VWS V14.01,2013-03-19 11:22:00,
2013-03-19 07:27:00,32.4,31.6,29.81,NW,319,0.0,0.0,97,0.00,,,0.00,0.00,VWS V14.01,2013-03-19 11:27:00,
2013-03-19 07:32:00,32.5,31.7,29.81,NW,319,0.0,0.0,97,0.00,,,0.00,0.00,VWS V14.01,2013-03-19 11:32:00,
2013-03-19 07:37:00,32.5,31.7,29.81,NW,319,0.0,0.0,97,0.00,,,0.00,0.00,VWS V14.01,2013-03-19 11:37:00,
2013-03-19 07:43:00,32.5,31.7,29.81,NW,318,0.0,0.0,97,0.00,,,0.00,0.00,VWS V14.01,2013-03-19 11:43:00,
2013-03-19 07:48:00,32.5,31.7,29.81,NW,318,0.0,0.0,97,0.00,,,0.00,7.00,VWS V14.01,2013-03-19 11:48:00,
2013-03-19 07:53:00,32.5,31.7,29.81,NW,319,0.0,0.0,97,0.00,,,0.00,7.00,VWS V14.01,2013-03-19 11:53:00,
2013-03-19 07:58:00,32.5,31.7,29.81,NW,319,0.0,0.0,97,0.00,,,0.00,12.00,VWS V14.01,2013-03-19 11:58:00,
2013-03-19 08:03:00,32.5,31.7,29.81,NW,319,0.0,0.0,97,0.00,,,0.00,14.00,VWS V14.01,2013-03-19 12:03:00,
2013-03-19 08:08:00,32.5,31.7,29.80,NW,319,0.0,0.0,97,0.00,,,0.00,19.00,VWS V14.01,2013-03-19 12:08:00,
2013-03-19 08:13:00,32.6,31.8,29.80,NW,318,0.0,0.0,97,0.00,,,0.00,32.00,VWS V14.01,2013-03-19 12:13:00,
2013-03-19 08:18:00,32.6,31.8,29.80,NW,319,0.0,0.0,97,0.00,,,0.00,39.00,VWS V14.01,2013-03-19 12:18:00,
2013-03-19 08:23:00,32.6,31.8,29.80,NW,319,0.0,0.0,97,0.00,,,0.00,49.00,VWS V14.01,2013-03-19 12:23:00,
2013-03-19 08:28:00,32.7,31.9,29.80,NW,318,0.0,0.0,97,0.00,,,0.00,63.00,VWS V14.01,2013-03-19 12:28:00,
2013-03-19 08:33:00,32.7,31.9,29.80,NW,319,0.0,0.0,97,0.00,,,0.00,62.00,VWS V14.01,2013-03-19 12:33:00,
2013-03-19 08:38:00,32.7,31.9,29.80,NW,318,0.0,0.0,97,0.00,,,0.00,49.00,VWS V14.01,2013-03-19 12:38:00,
2013-03-19 08:43:00,32.7,31.9,29.80,NW,319,0.0,0.0,97,0.00,,,0.00,33.00,VWS V14.01,2013-03-19 12:43:00,
2013-03-19 08:48:00,32.7,31.9,29.81,NW,319,0.0,0.0,97,0.00,,,0.00,72.00,VWS V14.01,2013-03-19 12:48:00,
2013-03-19 08:53:00,32.7,31.9,29.81,NW,319,0.0,0.0,97,0.00,,,0.00,95.00,VWS V14.01,2013-03-19 12:53:00,
2013-03-19 08:58:00,32.7,31.9,29.82,NW,318,0.0,0.0,97,0.00,,,0.00,35.00,VWS V14.01,2013-03-19 12:58:00,
2013-03-19 09:03:00,32.5,31.7,29.81,NNW,331,2.0,4.0,97,0.00,,,0.00,25.00,VWS V14.01,2013-03-19 13:03:00,
2013-03-19 09:08:00,32.4,31.6,29.82,NNW,332,0.0,0.0,97,0.00,,,0.00,90.00,VWS V14.01,2013-03-19 13:08:00,
2013-03-19 09:13:00,32.4,31.6,29.81,NNW,332,0.0,0.0,97,0.00,,,0.00,158.00,VWS V14.01,2013-03-19 13:13:00,
2013-03-19 09:18:00,32.6,31.8,29.82,NNW,331,0.0,0.0,97,0.00,,,0.00,127.00,VWS V14.01,2013-03-19 13:18:00,
2013-03-19 09:24:00,32.7,32.2,29.82,NNW,332,0.0,0.0,98,0.00,,,0.00,125.00,VWS V14.01,2013-03-19 13:24:00,
2013-03-19 09:29:00,33.2,32.7,29.82,NNW,331,0.0,0.0,98,0.00,,,0.00,155.00,VWS V14.01,2013-03-19 13:29:00,
2013-03-19 09:34:00,33.4,32.9,29.81,NNW,331,0.0,0.0,98,0.00,,,0.00,160.00,VWS V14.01,2013-03-19 13:34:00,
2013-03-19 09:39:00,33.5,33.0,29.81,NNW,332,0.0,0.0,98,0.00,,,0.00,176.00,VWS V14.01,2013-03-19 13:39:00,
2013-03-19 09:44:00,33.7,33.2,29.81,NNW,331,0.0,0.0,98,0.00,,,0.00,176.00,VWS V14.01,2013-03-19 13:44:00,
2013-03-19 09:49:00,33.7,33.2,29.81,NNW,331,0.0,0.0,98,0.00,,,0.00,167.00,VWS V14.01,2013-03-19 13:49:00,
2013-03-19 09:54:00,33.9,33.4,29.81,NNW,332,0.0,0.0,98,0.00,,,0.00,197.00,VWS V14.01,2013-03-19 13:54:00,
2013-03-19 09:59:00,34.2,33.7,29.81,NNW,332,0.0,0.0,98,0.01,,,0.01,169.00,VWS V14.01,2013-03-19 13:59:00,
2013-03-19 10:04:00,34.4,33.9,29.81,NNW,331,0.0,0.0,98,0.01,,,0.01,229.00,VWS V14.01,2013-03-19 14:04:00,
2013-03-19 10:09:00,34.4,33.9,29.81,NNW,332,0.0,0.0,98,0.01,,,0.01,214.00,VWS V14.01,2013-03-19 14:09:00,
2013-03-19 10:14:00,34.6,34.1,29.81,NNW,332,0.0,0.0,98,0.01,,,0.01,195.00,VWS V14.01,2013-03-19 14:14:00,
2013-03-19 10:19:00,34.7,34.2,29.80,NNW,332,0.0,0.0,98,0.02,,,0.02,253.00,VWS V14.01,2013-03-19 14:19:00,
2013-03-19 10:24:00,34.9,34.4,29.80,NNW,332,0.0,0.0,98,0.03,,,0.03,311.00,VWS V14.01,2013-03-19 14:24:00,
2013-03-19 10:30:00,35.2,34.7,29.80,SW,234,0.0,0.0,98,0.03,,,0.03,304.00,VWS V14.01,2013-03-19 14:30:00,
2013-03-19 10:35:00,35.5,35.0,29.79,SW,232,0.0,0.0,98,0.03,,,0.03,322.00,VWS V14.01,2013-03-19 14:35:00,
2013-03-19 10:40:00,35.6,35.1,29.79,SW,230,0.0,1.0,98,0.04,,,0.04,309.00,VWS V14.01,2013-03-19 14:40:00,
2013-03-19 10:45:00,35.9,35.4,29.79,WSW,255,0.0,0.0,98,0.05,,,0.05,388.00,VWS V14.01,2013-03-19 14:45:00,
2013-03-19 10:50:00,36.2,35.7,29.79,SSE,155,0.0,2.0,98,0.05,,,0.05,366.00,VWS V14.01,2013-03-19 14:50:00,
2013-03-19 10:55:00,36.7,36.2,29.78,SE,143,0.0,0.0,98,0.06,,,0.06,431.00,VWS V14.01,2013-03-19 14:55:00,
2013-03-19 11:00:00,37.1,36.6,29.78,SE,137,4.0,4.0,98,0.07,,,0.07,471.00,VWS V14.01,2013-03-19 15:00:00,
2013-03-19 11:05:00,37.9,37.4,29.78,SE,140,0.0,4.0,98,0.06,,,0.07,290.00,VWS V14.01,2013-03-19 15:05:00,
2013-03-19 11:10:00,38.9,38.4,29.77,ESE,107,0.0,3.0,98,0.07,,,0.08,425.00,VWS V14.01,2013-03-19 15:10:00,
2013-03-19 11:15:00,40.1,39.6,29.77,SE,132,0.0,3.0,98,0.08,,,0.09,443.00,VWS V14.01,2013-03-19 15:15:00,
2013-03-19 11:20:00,40.4,39.9,29.78,SE,138,0.0,4.0,98,0.09,,,0.10,480.00,VWS V14.01,2013-03-19 15:20:00,
2013-03-19 11:25:00,41.3,40.8,29.78,SE,141,1.0,2.0,98,0.09,,,0.11,506.00,VWS V14.01,2013-03-19 15:25:00,
2013-03-19 11:30:00,41.7,41.2,29.78,SE,141,0.0,1.0,98,0.08,,,0.11,531.00,VWS V14.01,2013-03-19 15:30:00,
2013-03-19 11:35:00,42.1,41.3,29.77,SE,141,0.0,0.0,97,0.09,,,0.12,561.00,VWS V14.01,2013-03-19 15:35:00,
2013-03-19 11:40:00,42.8,41.7,29.77,SE,141,0.0,0.0,96,0.10,,,0.13,591.00,VWS V14.01,2013-03-19 15:40:00,
2013-03-19 11:45:00,43.7,42.1,29.77,SE,141,0.0,0.0,94,0.10,,,0.14,628.00,VWS V14.01,2013-03-19 15:45:00,
2013-03-19 11:50:00,44.3,41.8,29.77,SE,142,0.0,2.0,91,0.10,,,0.15,649.00,VWS V14.01,2013-03-19 15:50:00,
2013-03-19 11:55:00,44.7,41.1,29.76,SSE,153,0.0,2.0,87,0.11,,,0.16,645.00,VWS V14.01,2013-03-19 15:55:00,
2013-03-19 12:00:00,45.4,41.2,29.76,SW,228,0.0,3.0,85,0.11,,,0.17,612.00,VWS V14.01,2013-03-19 16:00:00,
2013-03-19 12:05:00,45.7,39.6,29.76,WSW,243,0.0,4.0,79,0.11,,,0.18,584.00,VWS V14.01,2013-03-19 16:05:00,
2013-03-19 12:10:00,45.8,38.7,29.76,SW,223,1.0,2.0,76,0.12,,,0.19,548.00,VWS V14.01,2013-03-19 16:10:00,
2013-03-19 12:15:00,46.3,40.2,29.75,SSE,168,2.0,3.0,79,0.12,,,0.20,524.00,VWS V14.01,2013-03-19 16:15:00,
2013-03-19 12:20:00,46.4,39.3,29.75,WSW,248,0.0,6.0,76,0.12,,,0.21,519.00,VWS V14.01,2013-03-19 16:20:00,
2013-03-19 12:25:00,46.8,40.0,29.74,SE,146,0.0,5.0,77,0.12,,,0.22,536.00,VWS V14.01,2013-03-19 16:25:00,
2013-03-19 12:30:00,47.3,40.1,29.75,ENE,78,0.0,2.0,76,0.12,,,0.23,570.00,VWS V14.01,2013-03-19 16:30:00,
2013-03-19 12:35:00,47.7,38.8,29.76,SSW,206,3.0,4.0,71,0.13,,,0.24,612.00,VWS V14.01,2013-03-19 16:35:00,
2013-03-19 12:40:00,48.2,40.3,29.76,SSW,203,4.0,4.0,74,0.13,,,0.25,621.00,VWS V14.01,2013-03-19 16:40:00,
2013-03-19 12:45:00,48.5,39.2,29.76,WNW,288,0.0,7.0,70,0.13,,,0.26,573.00,VWS V14.01,2013-03-19 16:45:00,
2013-03-19 12:50:00,48.7,39.4,29.75,SSW,210,5.0,6.0,70,0.13,,,0.27,575.00,VWS V14.01,2013-03-19 16:50:00,
2013-03-19 12:55:00,49.0,40.7,29.75,SSW,213,2.0,6.0,73,0.12,,,0.27,629.00,VWS V14.01,2013-03-19 16:55:00,
2013-03-19 13:00:00,48.9,39.9,29.74,South,169,4.0,4.0,71,0.12,,,0.28,577.00,VWS V14.01,2013-03-19 17:00:00,
2013-03-19 13:05:00,49.6,40.2,29.74,SSE,158,1.0,8.0,70,0.12,,,0.29,619.00,VWS V14.01,2013-03-19 17:05:00,
2013-03-19 13:10:00,50.1,40.3,29.74,SSE,149,0.0,4.0,69,0.11,,,0.29,633.00,VWS V14.01,2013-03-19 17:10:00,
2013-03-19 13:15:00,50.8,41.0,29.73,SSW,200,5.0,7.0,69,0.11,,,0.30,642.00,VWS V14.01,2013-03-19 17:15:00,
2013-03-19 13:20:00,51.1,40.5,29.73,WSW,240,3.0,8.0,67,0.11,,,0.31,721.00,VWS V14.01,2013-03-19 17:20:00,
2013-03-19 13:25:00,51.7,40.3,29.72,SW,214,7.0,7.0,65,0.10,,,0.31,689.00,VWS V14.01,2013-03-19 17:25:00,
2013-03-19 13:30:00,52.7,40.5,29.72,SW,232,5.0,7.0,63,0.09,,,0.31,729.00,VWS V14.01,2013-03-19 17:30:00,
2013-03-19 13:35:00,53.2,39.7,29.72,WSW,248,3.0,13.0,60,0.09,,,0.32,758.00,VWS V14.01,2013-03-19 17:35:00,
2013-03-19 13:40:00,53.2,37.9,29.73,NNW,337,3.0,13.0,56,0.08,,,0.32,758.00,VWS V14.01,2013-03-19 17:40:00,
2013-03-19 13:45:00,53.9,37.2,29.73,WNW,294,4.0,6.0,53,0.07,,,0.32,756.00,VWS V14.01,2013-03-19 17:45:00,
2013-03-19 13:50:00,54.3,34.0,29.73,NW,317,3.0,14.0,46,0.06,,,0.32,759.00,VWS V14.01,2013-03-19 17:50:00,
2013-03-19 13:55:00,54.4,33.5,29.73,WNW,295,6.0,16.0,45,0.05,,,0.32,756.00,VWS V14.01,2013-03-19 17:55:00,
2013-03-19 14:00:00,54.6,33.7,29.73,NW,325,5.0,11.0,45,0.05,,,0.32,765.00,VWS V14.01,2013-03-19 18:00:00,
2013-03-19 14:05:00,55.3,34.3,29.73,WSW,242,7.0,10.0,45,0.04,,,0.32,747.00,VWS V14.01,2013-03-19 18:05:00,
2013-03-19 14:10:00,55.2,31.3,29.72,West,277,3.0,22.0,40,0.03,,,0.32,752.00,VWS V14.01,2013-03-19 18:10:00,
2013-03-19 14:15:00,55.1,32.4,29.72,NW,315,11.0,16.0,42,0.03,,,0.32,754.00,VWS V14.01,2013-03-19 18:15:00,
2013-03-19 14:20:00,55.0,32.3,29.72,WNW,288,6.0,12.0,42,0.02,,,0.32,520.00,VWS V14.01,2013-03-19 18:20:00,
2013-03-19 14:25:00,55.2,32.5,29.71,WSW,242,6.0,17.0,42,0.01,,,0.32,751.00,VWS V14.01,2013-03-19 18:25:00,
2013-03-19 14:30:00,55.4,32.1,29.72,WNW,294,11.0,21.0,41,0.01,,,0.32,744.00,VWS V14.01,2013-03-19 18:30:00,
2013-03-19 14:35:00,55.4,31.5,29.72,NW,304,6.0,15.0,40,0.01,,,0.32,742.00,VWS V14.01,2013-03-19 18:35:00,
2013-03-19 14:40:00,55.5,31.6,29.71,West,261,3.0,16.0,40,0.00,,,0.32,747.00,VWS V14.01,2013-03-19 18:40:00,
2013-03-19 14:45:00,55.9,31.3,29.71,NNW,340,5.0,11.0,39,0.00,,,0.32,826.00,VWS V14.01,2013-03-19 18:45:00,
2013-03-19 14:50:00,56.0,31.4,29.71,WNW,296,13.0,13.0,39,0.00,,,0.32,802.00,VWS V14.01,2013-03-19 18:50:00,
2013-03-19 14:55:00,56.0,31.4,29.71,WNW,302,2.0,16.0,39,0.00,,,0.32,835.00,VWS V14.01,2013-03-19 18:55:00,
2013-03-19 15:00:00,56.0,31.4,29.70,NW,313,6.0,17.0,39,0.00,,,0.32,882.00,VWS V14.01,2013-03-19 19:00:00,
2013-03-19 15:05:00,55.4,31.5,29.71,North,360,10.0,13.0,40,0.00,,,0.32,192.00,VWS V14.01,2013-03-19 19:05:00,
2013-03-19 15:10:00,54.4,30.6,29.71,NW,311,8.0,14.0,40,0.00,,,0.32,232.00,VWS V14.01,2013-03-19 19:10:00,
2013-03-19 15:15:00,53.7,30.6,29.71,NW,322,3.0,12.0,41,0.00,,,0.32,220.00,VWS V14.01,2013-03-19 19:15:00,
2013-03-19 15:20:00,53.5,31.0,29.71,WNW,286,2.0,14.0,42,0.00,,,0.32,230.00,VWS V14.01,2013-03-19 19:20:00,
2013-03-19 15:25:00,53.9,31.9,29.72,WNW,292,2.0,16.0,43,0.00,,,0.32,267.00,VWS V14.01,2013-03-19 19:25:00,
2013-03-19 15:30:00,54.6,31.4,29.71,NW,310,11.0,14.0,41,0.00,,,0.32,158.00,VWS V14.01,2013-03-19 19:30:00,
2013-03-19 15:35:00,55.0,31.1,29.71,West,280,11.0,11.0,40,0.00,,,0.32,733.00,VWS V14.01,2013-03-19 19:35:00,
2013-03-19 15:40:00,55.2,30.7,29.71,NW,321,8.0,16.0,39,0.00,,,0.32,675.00,VWS V14.01,2013-03-19 19:40:00,
2013-03-19 15:45:00,55.3,30.8,29.71,WSW,250,3.0,16.0,39,0.00,,,0.32,636.00,VWS V14.01,2013-03-19 19:45:00,
2013-03-19 15:50:00,55.4,30.9,29.72,WNW,302,4.0,21.0,39,0.00,,,0.32,624.00,VWS V14.01,2013-03-19 19:50:00,
2013-03-19 15:55:00,55.2,29.4,29.72,NW,315,3.0,23.0,37,0.00,,,0.32,610.00,VWS V14.01,2013-03-19 19:55:00,
2013-03-19 16:00:00,54.8,29.0,29.72,WNW,300,14.0,20.0,37,0.00,,,0.32,86.00,VWS V14.01,2013-03-19 20:00:00,
2013-03-19 16:05:00,54.5,28.8,29.71,West,264,2.0,20.0,37,0.00,,,0.32,617.00,VWS V14.01,2013-03-19 20:05:00,
2013-03-19 16:10:00,55.0,30.5,29.72,NW,311,9.0,14.0,39,0.00,,,0.32,619.00,VWS V14.01,2013-03-19 20:10:00,
2013-03-19 16:15:00,55.3,30.8,29.71,WNW,300,5.0,18.0,39,0.00,,,0.32,533.00,VWS V14.01,2013-03-19 20:15:00,
2013-03-19 16:20:00,55.5,30.3,29.71,West,280,11.0,14.0,38,0.00,,,0.32,566.00,VWS V14.01,2013-03-19 20:20:00,
2013-03-19 16:25:00,54.8,27.7,29.71,West,275,7.0,18.0,35,0.00,,,0.32,171.00,VWS V14.01,2013-03-19 20:25:00,
2013-03-19 16:30:00,54.1,27.8,29.71,WNW,294,5.0,12.0,36,0.00,,,0.32,529.00,VWS V14.01,2013-03-19 20:30:00,
2013-03-19 16:35:00,54.3,27.9,29.72,West,264,6.0,16.0,36,0.00,,,0.32,529.00,VWS V14.01,2013-03-19 20:35:00,
2013-03-19 16:40:00,54.6,27.5,29.72,North,355,8.0,23.0,35,0.00,,,0.32,487.00,VWS V14.01,2013-03-19 20:40:00,
2013-03-19 16:45:00,54.5,27.4,29.72,NW,321,10.0,20.0,35,0.00,,,0.32,116.00,VWS V14.01,2013-03-19 20:45:00,
2013-03-19 16:50:00,54.2,26.5,29.72,WNW,286,12.0,25.0,34,0.00,,,0.32,536.00,VWS V14.01,2013-03-19 20:50:00,
2013-03-19 16:55:00,54.4,27.3,29.73,WNW,290,3.0,20.0,35,0.00,,,0.32,471.00,VWS V14.01,2013-03-19 20:55:00,
2013-03-19 17:00:00,54.7,26.2,29.73,NW,311,13.0,17.0,33,0.00,,,0.32,455.00,VWS V14.01,2013-03-19 21:00:00,
2013-03-19 17:05:00,54.1,24.9,29.73,South,180,13.0,19.0,32,0.00,,,0.32,452.00,VWS V14.01,2013-03-19 21:05:00,
2013-03-19 17:10:00,54.0,24.8,29.73,SSW,209,4.0,17.0,32,0.00,,,0.32,410.00,VWS V14.01,2013-03-19 21:10:00,
2013-03-19 17:15:00,53.9,24.7,29.73,NW,321,6.0,25.0,32,0.00,,,0.32,408.00,VWS V14.01,2013-03-19 21:15:00,
2013-03-19 17:20:00,53.4,25.0,29.73,NW,319,3.0,23.0,33,0.00,,,0.32,404.00,VWS V14.01,2013-03-19 21:20:00,
2013-03-19 17:25:00,53.4,23.5,29.74,WNW,287,18.0,18.0,31,0.00,,,0.32,427.00,VWS V14.01,2013-03-19 21:25:00,
2013-03-19 17:30:00,53.5,25.1,29.74,WNW,302,1.0,3.0,33,0.00,,,0.32,366.00,VWS V14.01,2013-03-19 21:30:00,
2013-03-19 17:35:00,53.6,22.1,29.74,WSW,242,8.0,12.0,29,0.00,,,0.32,348.00,VWS V14.01,2013-03-19 21:35:00,
2013-03-19 17:40:00,53.5,22.9,29.74,NNE,24,4.0,7.0,30,0.00,,,0.32,308.00,VWS V14.01,2013-03-19 21:40:00,
2013-03-19 17:45:00,53.4,21.1,29.74,WNW,283,2.0,6.0,28,0.00,,,0.32,241.00,VWS V14.01,2013-03-19 21:45:00,
2013-03-19 17:51:00,53.0,19.9,29.74,NNW,328,13.0,13.0,27,0.00,,,0.32,264.00,VWS V14.01,2013-03-19 21:51:00,
2013-03-19 17:56:00,52.6,20.4,29.75,WNW,298,14.0,15.0,28,0.00,,,0.32,74.00,VWS V14.01,2013-03-19 21:56:00,
2013-03-19 18:01:00,52.1,20.0,29.75,North,349,5.0,15.0,28,0.00,,,0.32,179.00,VWS V14.01,2013-03-19 22:01:00,
2013-03-19 18:06:00,51.9,19.8,29.75,NW,318,5.0,10.0,28,0.00,,,0.32,127.00,VWS V14.01,2013-03-19 22:06:00,
2013-03-19 18:11:00,51.9,19.8,29.75,WNW,292,15.0,15.0,28,0.00,,,0.32,107.00,VWS V14.01,2013-03-19 22:11:00,
2013-03-19 18:17:00,51.8,19.8,29.76,WNW,299,9.0,19.0,28,0.00,,,0.32,65.00,VWS V14.01,2013-03-19 22:17:00,
2013-03-19 18:22:00,51.5,18.6,29.76,NW,322,1.0,21.0,27,0.00,,,0.32,72.00,VWS V14.01,2013-03-19 22:22:00,
2013-03-19 18:27:00,51.3,18.5,29.76,WSW,257,3.0,9.0,27,0.00,,,0.32,54.00,VWS V14.01,2013-03-19 22:27:00,
2013-03-19 18:32:00,51.0,18.2,29.76,WSW,248,1.0,6.0,27,0.00,,,0.32,54.00,VWS V14.01,2013-03-19 22:32:00,
2013-03-19 18:37:00,50.8,19.7,29.77,WNW,284,5.0,15.0,29,0.00,,,0.32,56.00,VWS V14.01,2013-03-19 22:37:00,
2013-03-19 18:42:00,50.6,19.5,29.77,NW,319,12.0,12.0,29,0.00,,,0.32,53.00,VWS V14.01,2013-03-19 22:42:00,
2013-03-19 18:47:00,50.3,19.3,29.77,WNW,294,1.0,14.0,29,0.00,,,0.32,33.00,VWS V14.01,2013-03-19 22:47:00,
2013-03-19 18:52:00,49.9,18.9,29.78,NW,315,4.0,8.0,29,0.00,,,0.32,33.00,VWS V14.01,2013-03-19 22:52:00,
2013-03-19 18:57:00,49.5,17.8,29.78,NW,315,7.0,14.0,28,0.00,,,0.32,25.00,VWS V14.01,2013-03-19 22:57:00,
2013-03-19 19:02:00,49.2,17.5,29.78,NW,311,5.0,14.0,28,0.00,,,0.32,19.00,VWS V14.01,2013-03-19 23:02:00,
2013-03-19 19:07:00,48.9,17.2,29.79,NW,326,10.0,15.0,28,0.00,,,0.32,14.00,VWS V14.01,2013-03-19 23:07:00,
2013-03-19 19:12:00,48.7,17.1,29.79,WNW,284,7.0,16.0,28,0.00,,,0.32,11.00,VWS V14.01,2013-03-19 23:12:00,
2013-03-19 19:18:00,48.4,16.8,29.79,NW,316,8.0,20.0,28,0.00,,,0.32,7.00,VWS V14.01,2013-03-19 23:18:00,
2013-03-19 19:23:00,48.2,17.5,29.79,WNW,286,2.0,21.0,29,0.00,,,0.32,0.00,VWS V14.01,2013-03-19 23:23:00,
2013-03-19 19:28:00,47.9,18.0,29.80,NW,306,14.0,18.0,30,0.00,,,0.32,0.00,VWS V14.01,2013-03-19 23:28:00,
2013-03-19 19:33:00,47.6,17.7,29.80,NW,317,7.0,17.0,30,0.00,,,0.32,0.00,VWS V14.01,2013-03-19 23:33:00,
2013-03-19 19:38:00,47.3,17.5,29.81,NW,315,3.0,14.0,30,0.00,,,0.32,0.00,VWS V14.01,2013-03-19 23:38:00,
2013-03-19 19:43:00,47.0,18.0,29.81,NNW,327,5.0,12.0,31,0.00,,,0.32,0.00,VWS V14.01,2013-03-19 23:43:00,
2013-03-19 19:48:00,46.8,17.8,29.81,NW,307,0.0,8.0,31,0.00,,,0.32,0.00,VWS V14.01,2013-03-19 23:48:00,
2013-03-19 19:53:00,46.6,17.6,29.81,NW,310,8.0,11.0,31,0.00,,,0.32,0.00,VWS V14.01,2013-03-19 23:53:00,
2013-03-19 19:58:00,46.4,17.4,29.81,NNW,346,7.0,14.0,31,0.00,,,0.32,0.00,VWS V14.01,2013-03-19 23:58:00,
2013-03-19 20:04:00,46.3,17.3,29.81,NW,304,11.0,18.0,31,0.00,,,0.32,0.00,VWS V14.01,2013-03-20 00:04:00,
2013-03-19 20:09:00,46.4,17.4,29.82,NW,315,6.0,18.0,31,0.00,,,0.32,0.00,VWS V14.01,2013-03-20 00:09:00,
2013-03-19 20:14:00,46.2,17.2,29.82,WNW,302,14.0,14.0,31,0.00,,,0.32,0.00,VWS V14.01,2013-03-20 00:14:00,
2013-03-19 20:19:00,46.0,17.1,29.83,NW,309,4.0,16.0,31,0.00,,,0.32,0.00,VWS V14.01,2013-03-20 00:19:00,
2013-03-19 20:24:00,45.9,17.0,29.82,NW,314,3.0,12.0,31,0.00,,,0.32,0.00,VWS V14.01,2013-03-20 00:24:00,
2013-03-19 20:29:00,45.7,17.5,29.82,WNW,301,2.0,15.0,32,0.00,,,0.32,0.00,VWS V14.01,2013-03-20 00:29:00,
2013-03-19 20:34:00,45.6,17.5,29.82,NW,318,3.0,9.0,32,0.00,,,0.32,0.00,VWS V14.01,2013-03-20 00:34:00,
2013-03-19 20:39:00,45.5,17.4,29.83,NW,306,10.0,14.0,32,0.00,,,0.32,0.00,VWS V14.01,2013-03-20 00:39:00,
2013-03-19 20:44:00,45.6,17.5,29.82,WNW,294,0.0,18.0,32,0.00,,,0.32,0.00,VWS V14.01,2013-03-20 00:44:00,
2013-03-19 20:49:00,45.5,17.4,29.83,WNW,287,12.0,16.0,32,0.00,,,0.32,0.00,VWS V14.01,2013-03-20 00:49:00,
2013-03-19 20:54:00,45.5,17.4,29.83,NW,305,11.0,19.0,32,0.00,,,0.32,0.00,VWS V14.01,2013-03-20 00:54:00,
2013-03-19 20:59:00,45.5,18.1,29.83,NW,325,5.0,16.0,33,0.00,,,0.32,0.00,VWS V14.01,2013-03-20 00:59:00,
2013-03-19 21:04:00,45.5,17.4,29.83,NNW,329,19.0,20.0,32,0.00,,,0.32,0.00,VWS V14.01,2013-03-20 01:04:00,
2013-03-19 21:10:00,45.5,17.4,29.84,WNW,284,4.0,16.0,32,0.00,,,0.32,0.00,VWS V14.01,2013-03-20 01:10:00,
2013-03-19 21:15:00,45.4,17.3,29.84,North,355,10.0,14.0,32,0.00,,,0.32,0.00,VWS V14.01,2013-03-20 01:15:00,
2013-03-19 21:20:00,44.5,22.3,29.86,NNW,342,8.0,18.0,41,0.00,,,0.32,0.00,VWS V14.01,2013-03-20 01:20:00,
2013-03-19 21:25:00,43.2,22.8,29.86,NNW,337,13.0,17.0,44,0.00,,,0.32,0.00,VWS V14.01,2013-03-20 01:25:00,
2013-03-19 21:30:00,42.2,23.4,29.86,NW,307,8.0,12.0,47,0.00,,,0.32,0.00,VWS V14.01,2013-03-20 01:30:00,
2013-03-19 21:35:00,41.4,23.7,29.86,NNW,347,11.0,16.0,49,0.00,,,0.32,0.00,VWS V14.01,2013-03-20 01:35:00,
2013-03-19 21:40:00,40.8,24.1,29.85,NW,319,8.0,13.0,51,0.00,,,0.32,0.00,VWS V14.01,2013-03-20 01:40:00,
2013-03-19 21:45:00,40.4,24.2,29.86,North,355,7.0,15.0,52,0.00,,,0.32,0.00,VWS V14.01,2013-03-20 01:45:00,
2013-03-19 21:50:00,40.1,23.9,29.87,NNW,344,4.0,12.0,52,0.00,,,0.32,0.00,VWS V14.01,2013-03-20 01:50:00,
2013-03-19 21:55:00,39.8,24.1,29.87,NNW,329,9.0,14.0,53,0.00,,,0.32,0.00,VWS V14.01,2013-03-20 01:55:00,
2013-03-19 22:00:00,39.6,23.9,29.86,NW,323,7.0,12.0,53,0.00,,,0.32,0.00,VWS V14.01,2013-03-20 02:00:00,
2013-03-19 22:05:00,39.4,24.1,29.86,NNW,336,3.0,13.0,54,0.00,,,0.32,0.00,VWS V14.01,2013-03-20 02:05:00,
2013-03-19 22:10:00,39.3,24.1,29.87,NNW,345,9.0,12.0,54,0.00,,,0.32,0.00,VWS V14.01,2013-03-20 02:10:00,
2013-03-19 22:15:00,39.1,24.3,29.88,North,350,7.0,10.0,55,0.00,,,0.32,0.00,VWS V14.01,2013-03-20 02:15:00,
2013-03-19 22:20:00,39.0,24.2,29.87,NNE,26,6.0,6.0,55,0.00,,,0.32,0.00,VWS V14.01,2013-03-20 02:20:00,
2013-03-19 22:25:00,38.9,24.1,29.88,NNW,342,8.0,8.0,55,0.00,,,0.32,0.00,VWS V14.01,2013-03-20 02:25:00,
2013-03-19 22:31:00,38.8,24.0,29.87,NNW,346,4.0,6.0,55,0.00,,,0.32,0.00,VWS V14.01,2013-03-20 02:31:00,
2013-03-19 22:36:00,38.7,23.9,29.88,NNW,327,3.0,8.0,55,0.00,,,0.32,0.00,VWS V14.01,2013-03-20 02:36:00,
2013-03-19 22:41:00,38.6,24.3,29.89,NW,313,6.0,9.0,56,0.00,,,0.32,0.00,VWS V14.01,2013-03-20 02:41:00,
2013-03-19 22:46:00,38.5,24.2,29.89,NW,318,12.0,13.0,56,0.00,,,0.32,0.00,VWS V14.01,2013-03-20 02:46:00,
2013-03-19 22:51:00,38.5,24.2,29.89,NNW,339,4.0,5.0,56,0.00,,,0.32,0.00,VWS V14.01,2013-03-20 02:51:00,
2013-03-19 22:56:00,38.4,24.1,29.89,NNW,327,4.0,11.0,56,0.00,,,0.32,0.00,VWS V14.01,2013-03-20 02:56:00,
2013-03-19 23:01:00,38.3,24.0,29.89,NNW,336,5.0,6.0,56,0.00,,,0.32,0.00,VWS V14.01,2013-03-20 03:01:00,
2013-03-19 23:07:00,38.2,23.9,29.89,NW,306,5.0,7.0,56,0.00,,,0.32,0.00,VWS V14.01,2013-03-20 03:07:00,
2013-03-19 23:12:00,38.0,23.7,29.89,NNW,342,6.0,10.0,56,0.00,,,0.32,0.00,VWS V14.01,2013-03-20 03:12:00,
2013-03-19 23:17:00,38.0,23.3,29.90,NW,321,6.0,7.0,55,0.00,,,0.32,0.00,VWS V14.01,2013-03-20 03:17:00,
2013-03-19 23:22:00,38.1,22.9,29.90,NW,322,4.0,6.0,54,0.00,,,0.32,0.00,VWS V14.01,2013-03-20 03:22:00,
2013-03-19 23:27:00,38.2,22.6,29.90,NW,317,3.0,6.0,53,0.00,,,0.32,0.00,VWS V14.01,2013-03-20 03:27:00,
2013-03-19 23:32:00,38.4,22.3,29.90,WNW,296,3.0,10.0,52,0.00,,,0.32,0.00,VWS V14.01,2013-03-20 03:32:00,
2013-03-19 23:38:00,38.7,21.2,29.90,NNW,340,8.0,14.0,49,0.00,,,0.32,0.00,VWS V14.01,2013-03-20 03:38:00,
2013-03-19 23:43:00,39.1,21.1,29.90,NNW,331,14.0,15.0,48,0.00,,,0.32,0.00,VWS V14.01,2013-03-20 03:43:00,
2013-03-19 23:48:00,39.5,20.5,29.90,NW,317,14.0,18.0,46,0.00,,,0.32,0.00,VWS V14.01,2013-03-20 03:48:00,
2013-03-19 23:53:00,39.8,19.7,29.90,NW,314,12.0,27.0,44,0.00,,,0.32,0.00,VWS V14.01,2013-03-20 03:53:00,
2013-03-19 23:58:00,39.9,19.2,29.90,NW,308,12.0,17.0,43,0.00,,,0.32,0.00,VWS V14.01,2013-03-20 03:58:00,